[[{"header":{"parameterUnit":"m.s-1","parameterCategory":1,"la1":30.2991,"la2":30.254,"lo1":-89.0895,"lo2":-89.0444,"dy":0.0017,"dx":0.0017,"nx":28,"ny":28,"refTime":"2025-03-23T21:00:00:Z","depth":0,"parameterNumber":2,"parameterNumberName":"U-component_of_WINDS"},"data":[0,0,0,0,0,0,0,0,0,0,0,0,0,0,0,0,0,0,0,0,0,0,0,0,0,0,0,0,0,0,0,0,0,0,0,0,0,0,0,0,0,0,0,0,0,0,0,0,0,0,0,0,0,0,0,0,0,0,-0.1929,-0.1929,0,-0.1939,-0.1939,-0.1939,-0.1919,-0.1918,-0.1917,-0.1917,-0.1927,-0.1928,-0.1929,0,0,0,0,0,0,0,0,0,0,0,0,0,-0.1894,-0.1895,-0.1929,-0.1929,-0.1929,-0.1939,-0.1939,-0.1939,-0.1919,-0.1918,-0.1917,-0.1916,-0.1927,-0.1928,-0.1929,0,0,0,0,0,0,0,0,0,0,0,0,0,-0.1907,-0.1895,-0.1929,-0.192,-0.192,-0.1939,-0.1939,-0.1939,-0.1919,-0.1918,-0.1917,-0.1916,-0.1926,-0.1927,-0.1929,-0.1957,0,0,-0.1933,-0.1933,0,0,0,0,0,0,0,0,-0.1906,-0.1908,-0.1921,-0.1921,-0.192,-0.1926,-0.193,-0.1945,-0.1919,-0.1919,-0.1917,-0.1915,-0.1927,-0.1929,-0.1933,-0.1957,-0.1958,-0.1933,-0.1934,-0.1934,-0.1935,0,0,0,0,0,0,0,-0.1906,-0.1908,-0.1933,-0.1922,-0.1921,-0.1916,-0.1917,-0.1933,-0.1929,-0.1919,-0.1918,-0.1919,-0.1927,-0.1931,-0.1933,-0.1958,-0.1933,-0.1934,-0.1935,-0.1935,-0.2008,-0.2009,0,0,0,0,0,0,-0.1906,-0.1907,-0.1932,-0.1933,-0.1911,-0.1918,-0.1918,-0.1925,-0.1928,-0.1928,-0.192,-0.1918,-0.193,-0.1931,-0.1933,-0.1967,-0.1934,-0.1936,-0.1936,-0.2006,-0.2008,-0.2009,0,0,0,0,0,0,-0.1905,-0.1908,-0.1932,-0.192,-0.1923,-0.1919,-0.1927,-0.1926,-0.193,-0.1929,-0.1928,-0.1925,-0.1929,-0.1931,-0.1951,-0.1967,-0.1936,-0.1937,-0.2005,-0.2007,-0.2008,-0.2035,0,0,0,0,0,0,-0.1904,-0.1908,-0.1918,-0.192,-0.1923,-0.195,-0.1928,-0.1927,-0.1933,-0.193,-0.1934,-0.1933,-0.1928,-0.195,-0.1953,-0.1968,-0.1938,-0.2004,-0.2006,-0.2008,-0.2032,-0.2037,-0.2041,0,0,0,0,0,-0.1903,-0.1925,-0.1919,-0.1922,-0.1936,-0.1951,-0.1953,-0.1946,-0.1934,-0.1945,-0.1944,-0.1933,-0.1965,-0.1952,-0.1955,-0.1971,-0.2003,-0.2005,-0.2008,-0.2031,-0.2036,-0.2041,0,0,0,0,0,0,-0.1925,-0.1925,-0.1918,-0.1941,-0.1946,-0.1947,-0.196,-0.1952,-0.1961,-0.1958,-0.195,-0.1951,-0.1973,-0.1974,-0.196,-0.2,-0.1982,-0.1985,-0.1998,-0.2003,-0.2008,-0.2007,-0.194,0,0,0,0,0,-0.1932,-0.1944,-0.1944,-0.1964,-0.1967,-0.1964,-0.197,-0.1965,-0.1969,-0.1971,-0.1972,-0.1977,-0.1988,-0.1996,-0.2006,-0.2032,-0.2034,-0.2046,-0.205,-0.2053,-0.2057,-0.2072,-0.2078,-0.2017,-0.2017,-0.2017,0,0,-0.1948,-0.195,-0.1957,-0.1969,-0.1972,-0.1985,-0.1965,-0.198,-0.1989,-0.1973,-0.1993,-0.1994,-0.1999,-0.2023,-0.2033,-0.2025,-0.2073,-0.2057,-0.2059,-0.2061,-0.2075,-0.2081,-0.2086,-0.2019,-0.2019,-0.2018,0,0,-0.1983,-0.1985,-0.2003,-0.2007,-0.2012,-0.201,-0.2014,-0.2017,-0.2017,-0.2036,-0.2025,-0.2037,-0.2056,-0.206,-0.2065,-0.2104,-0.2095,-0.2107,-0.213,-0.2145,-0.215,-0.2154,-0.2169,-0.2174,-0.211,-0.211,-0.211,0,-0.2002,-0.2021,-0.2014,-0.2029,-0.2035,-0.2021,-0.204,-0.2044,-0.2052,-0.2057,-0.2047,-0.2071,-0.2074,-0.2099,-0.2109,-0.2113,-0.2119,-0.2107,-0.215,-0.2154,-0.2158,-0.2172,-0.2177,-0.2112,-0.2112,-0.2112,-0.2111,0,-0.2045,-0.2058,-0.2072,-0.2081,-0.2088,-0.2105,-0.2101,-0.2109,-0.2104,-0.2103,-0.2123,-0.2126,-0.2137,-0.2142,-0.2137,-0.2168,-0.2162,-0.2151,-0.2133,-0.2165,-0.2178,-0.2184,-0.2114,-0.2114,-0.2113,-0.2113,0,0,-0.2093,-0.2099,-0.2104,-0.2108,-0.2114,-0.2124,-0.2141,-0.2152,-0.216,-0.2166,-0.2181,-0.2198,-0.2188,-0.2194,-0.2189,-0.2202,-0.2234,-0.2189,-0.2189,-0.2198,-0.2269,-0.2278,-0.2284,-0.2228,-0.2229,-0.2229,-0.2269,0,-0.2129,-0.2158,-0.2153,-0.2181,-0.2194,-0.2182,-0.2197,-0.2202,-0.2202,-0.2213,-0.2213,-0.2225,-0.2211,-0.2214,-0.2227,-0.2227,-0.2248,-0.2224,-0.2242,-0.2243,-0.2242,-0.2291,-0.23,-0.2338,-0.2274,-0.2275,-0.2276,0,-0.2174,-0.2183,-0.2213,-0.2218,-0.2223,-0.2236,-0.2247,-0.2257,-0.2263,-0.2262,-0.2269,-0.2262,-0.228,-0.2261,-0.2286,-0.227,-0.2277,-0.2279,-0.228,-0.2282,-0.2261,-0.2295,-0.2349,-0.2355,-0.2283,-0.2283,-0.2282,0,-0.2208,-0.2227,-0.2248,-0.2252,-0.2258,-0.2268,-0.227,-0.2275,-0.2283,-0.2292,-0.2297,-0.2308,-0.2314,-0.2323,-0.232,-0.2306,-0.2346,-0.2327,-0.2346,-0.2346,-0.2355,-0.2355,-0.2412,-0.2358,-0.2358,-0.2358,-0.2358,0,-0.2249,-0.2268,-0.2264,-0.2276,-0.2298,-0.2292,-0.2313,-0.2314,-0.2319,-0.2333,-0.2323,-0.2336,-0.233,-0.2342,-0.234,-0.2362,-0.2364,-0.2364,-0.2364,-0.2366,-0.2366,-0.2371,-0.2368,-0.236,-0.2359,-0.2359,-0.2359,0,-0.2291,-0.2288,-0.231,-0.2314,-0.2315,-0.2331,-0.2334,-0.2347,-0.2346,-0.2363,-0.2367,-0.2366,-0.2381,-0.2378,-0.2394,-0.2392,-0.242,-0.2415,-0.2418,-0.2417,-0.2437,-0.2435,-0.25,-0.2508,-0.2448,-0.2449,-0.245,0,-0.2317,-0.2332,-0.2337,-0.2346,-0.2349,-0.2363,-0.237,-0.2365,-0.2374,-0.2383,-0.2394,-0.2408,-0.2419,-0.2443,-0.2444,-0.2456,-0.2453,-0.2474,-0.2455,-0.2457,-0.2454,-0.2454,-0.2456,-0.2479,-0.2479,-0.248,-0.248,0,-0.2365,-0.2363,-0.2375,-0.2386,-0.2396,-0.2405,-0.2413,-0.242,-0.2416,-0.2426,-0.2441,-0.2449,-0.2466,-0.2481,-0.2492,-0.2496,-0.2488,-0.2487,-0.2492,-0.2495,-0.2496,-0.2496,-0.2429,-0.2485,-0.2485,-0.2484,-0.2484,-0.2484,-0.24,-0.2413,-0.2419,-0.2433,-0.2438,-0.2446,-0.2459,-0.246,-0.2472,-0.2486,-0.2482,-0.2499,-0.2506,-0.2522,-0.2526,-0.254,-0.2532,-0.254,-0.2542,-0.2544,-0.2547,-0.2493,-0.2542,-0.2542,-0.2542,-0.2542,-0.2542,0,-0.2448,-0.2452,-0.2464,-0.2476,-0.2487,-0.2479,-0.2487,-0.2497,-0.2513,-0.252,-0.2531,-0.2549,-0.2563,-0.2565,-0.2579,-0.259,-0.2587,-0.2594,-0.2593,-0.2594,-0.2553,-0.2547,-0.2596,-0.2596,-0.2596,-0.2596,-0.2596,-0.2596,-0.2475,-0.2496,-0.2496,-0.252,-0.2524,-0.2541,-0.2547,-0.2555,-0.256,-0.2581,-0.2593,-0.2594,-0.26,-0.2614,-0.2627,-0.2628,-0.2634,-0.2642,-0.2642,-0.2603,-0.2597,-0.2592,-0.2587,-0.2643,-0.2644,-0.2682,-0.2683,-0.2683]},{"header":{"parameterUnit":"m.s-1","parameterCategory":1,"la1":30.2991,"la2":30.254,"lo1":-89.0895,"lo2":-89.0444,"dy":0.0017,"dx":0.0017,"nx":28,"ny":28,"refTime":"2025-03-23T21:00:00:Z","depth":0,"parameterNumber":3,"parameterNumberName":"V-component_of_WINDS"},"data":[0,0,0,0,0,0,0,0,0,0,0,0,0,0,0,0,0,0,0,0,0,0,0,0,0,0,0,0,0,0,0,0,0,0,0,0,0,0,0,0,0,0,0,0,0,0,0,0,0,0,0,0,0,0,0,0,0,0,0.1934,0.1934,0,0.1899,0.1899,0.1899,0.1904,0.1904,0.1905,0.1905,0.1864,0.1862,0.1861,0,0,0,0,0,0,0,0,0,0,0,0,0,0.1999,0.1998,0.1934,0.1934,0.1933,0.1899,0.1899,0.1898,0.1903,0.1904,0.1905,0.1906,0.1865,0.1863,0.1861,0,0,0,0,0,0,0,0,0,0,0,0,0,0.1968,0.1997,0.1934,0.1932,0.1931,0.19,0.1899,0.1898,0.1903,0.1904,0.1905,0.1906,0.1865,0.1863,0.186,0.1827,0,0,0.1853,0.1852,0,0,0,0,0,0,0,0,0.197,0.1965,0.1933,0.1932,0.1931,0.1907,0.1907,0.1874,0.1903,0.1914,0.1905,0.1906,0.1877,0.1874,0.1865,0.1825,0.1823,0.1853,0.1851,0.185,0.1849,0,0,0,0,0,0,0,0.1972,0.1967,0.192,0.1932,0.1931,0.193,0.1927,0.19,0.1891,0.1913,0.1913,0.1909,0.1877,0.1868,0.1864,0.1823,0.1853,0.185,0.1849,0.1848,0.1752,0.1751,0,0,0,0,0,0,0.1975,0.1969,0.1921,0.1919,0.1953,0.1929,0.1925,0.1914,0.1891,0.1889,0.1909,0.191,0.1871,0.1867,0.1863,0.1822,0.185,0.1848,0.1846,0.1753,0.1752,0.1751,0,0,0,0,0,0,0.1977,0.1971,0.1923,0.1944,0.1938,0.1927,0.1914,0.1912,0.1903,0.1888,0.1886,0.1901,0.1872,0.1866,0.1836,0.182,0.1847,0.1844,0.1754,0.1753,0.1751,0.1739,0,0,0,0,0,0,0.1979,0.1972,0.196,0.1944,0.1937,0.1898,0.1913,0.1911,0.19,0.1901,0.188,0.1878,0.1872,0.184,0.1834,0.1817,0.1842,0.1756,0.1754,0.1752,0.1741,0.1737,0.1734,0,0,0,0,0,0.1981,0.1957,0.196,0.1954,0.1923,0.1898,0.1893,0.1889,0.1898,0.1886,0.1876,0.1878,0.1823,0.1837,0.183,0.1812,0.1757,0.1754,0.1752,0.1742,0.1738,0.1735,0,0,0,0,0,0,0.1971,0.1955,0.1958,0.1929,0.1915,0.1899,0.1883,0.1885,0.1866,0.1868,0.1862,0.1857,0.1826,0.1816,0.1832,0.1778,0.1791,0.1787,0.1786,0.1782,0.1779,0.1781,0.184,0,0,0,0,0,0.1965,0.1948,0.1935,0.191,0.1903,0.1894,0.1883,0.1881,0.1865,0.1859,0.1847,0.183,0.1809,0.1795,0.1774,0.174,0.1734,0.1724,0.1721,0.1718,0.1715,0.1694,0.1689,0.1743,0.1743,0.1743,0,0,0.1953,0.1943,0.1932,0.1908,0.1897,0.1877,0.1889,0.1868,0.1853,0.1855,0.1826,0.1816,0.1797,0.1764,0.1749,0.1755,0.1699,0.1715,0.1713,0.1711,0.1691,0.1686,0.1682,0.1741,0.1741,0.1742,0,0,0.1922,0.1913,0.1891,0.188,0.1863,0.1857,0.1852,0.1836,0.183,0.1801,0.1802,0.1783,0.1747,0.1733,0.1721,0.1683,0.1684,0.1676,0.1659,0.1639,0.1635,0.1631,0.1616,0.1611,0.1673,0.1673,0.1673,0,0.1909,0.1881,0.1879,0.1858,0.1846,0.1849,0.1826,0.1814,0.1791,0.1782,0.179,0.1744,0.1731,0.1694,0.1685,0.1676,0.1668,0.1678,0.1636,0.1632,0.1628,0.1614,0.1609,0.1672,0.1672,0.1672,0.1672,0,0.1865,0.1846,0.183,0.1809,0.1796,0.1774,0.1766,0.1753,0.1751,0.1744,0.1714,0.1698,0.1674,0.1666,0.1664,0.1628,0.1632,0.1638,0.165,0.1622,0.1609,0.1604,0.1671,0.1671,0.1671,0.1671,0,0,0.1826,0.1805,0.1799,0.179,0.1771,0.1755,0.1732,0.1711,0.1698,0.1682,0.1661,0.163,0.1635,0.1621,0.1618,0.16,0.157,0.1608,0.1607,0.16,0.1528,0.1524,0.1518,0.1571,0.157,0.1569,0.1529,0,0.1793,0.1754,0.1751,0.1716,0.1697,0.1699,0.1678,0.1664,0.1656,0.1637,0.1627,0.1606,0.1614,0.1606,0.1589,0.1577,0.1555,0.158,0.1549,0.1548,0.1554,0.1511,0.1506,0.147,0.1524,0.1523,0.1523,0,0.1748,0.1732,0.1696,0.1679,0.1671,0.1653,0.1633,0.1615,0.1598,0.1593,0.1578,0.1576,0.155,0.1564,0.1527,0.1544,0.1531,0.1523,0.1521,0.1518,0.1533,0.1505,0.1458,0.1453,0.1515,0.1515,0.1516,0,0.1723,0.1692,0.1666,0.1657,0.1638,0.1625,0.1616,0.16,0.1586,0.1567,0.1558,0.1536,0.1524,0.1505,0.1497,0.1508,0.1459,0.1473,0.1453,0.1453,0.1442,0.1443,0.1392,0.1435,0.1435,0.1435,0.1435,0,0.1685,0.1662,0.1654,0.1638,0.1611,0.1607,0.158,0.1571,0.1557,0.1537,0.1537,0.1518,0.1508,0.1487,0.148,0.1449,0.1444,0.1438,0.1436,0.1437,0.1438,0.1428,0.143,0.1434,0.1434,0.1434,0.1435,0,0.1652,0.1646,0.1617,0.1601,0.1597,0.1578,0.1563,0.1546,0.1539,0.1514,0.1508,0.1495,0.147,0.146,0.1429,0.1424,0.1388,0.1389,0.1395,0.1394,0.1375,0.1376,0.1315,0.1306,0.1356,0.1355,0.1355,0,0.1628,0.1611,0.1594,0.1581,0.1572,0.1553,0.154,0.1534,0.152,0.1498,0.1483,0.1459,0.1439,0.1399,0.1385,0.1361,0.136,0.1341,0.1357,0.1358,0.1359,0.136,0.1357,0.1337,0.1337,0.1336,0.1336,0,0.1586,0.1584,0.1566,0.1547,0.1532,0.1516,0.15,0.149,0.1481,0.1465,0.1441,0.1426,0.1394,0.1369,0.1344,0.1332,0.1332,0.1331,0.1325,0.1326,0.133,0.1327,0.1386,0.1333,0.1333,0.1333,0.1333,0.1334,0.1557,0.1541,0.1526,0.1506,0.1494,0.1479,0.1463,0.1453,0.1433,0.1409,0.1406,0.1379,0.136,0.1327,0.1314,0.1292,0.1297,0.1288,0.1286,0.1283,0.1282,0.1335,0.1287,0.1287,0.1287,0.1287,0.1287,0,0.1514,0.1505,0.1486,0.1465,0.1449,0.1452,0.1434,0.142,0.1397,0.138,0.1361,0.1332,0.1308,0.1292,0.1267,0.1252,0.1251,0.1245,0.1246,0.1243,0.1279,0.1287,0.1247,0.1247,0.1247,0.1247,0.1247,0.1247,0.149,0.1463,0.1459,0.1425,0.1416,0.1391,0.1381,0.1366,0.1353,0.1321,0.1302,0.1293,0.1276,0.1249,0.1226,0.1222,0.1212,0.1206,0.1202,0.1236,0.124,0.1244,0.1251,0.1204,0.1204,0.1167,0.1167,0.1166]}]]